User: anonymous   Login
Location: Unspecified
(0.0000°N, 0.0000°E)
Time: 02:38:56
(UTC+01:00)
Language:

ARIANE 44L R/B - Orbit

View from above orbital plane
View from above orbital plane
View from above satellite
View from above satellite

Ground track
Ground track

The orbit data is extracted from the following two-line orbital elements,

1 26901U 01039B   15063.84182963  .00005737  00000-0  19994-2 0  9993
2 26901 007.0619 199.4314 6958584 221.5368 050.5286 02.68382460120611
Epoch (UTC): 04 March 2015 20:12:14
Eccentricity: 0.6958584
inclination: 7.0619°
perigee height: 274 km
apogee height: 30714 km
right ascension of ascending node: 199.4314°
argument of perigee: 221.5368°
revolutions per day: 2.68382460
mean anomaly at epoch: 50.5286°
orbit number at epoch: 12061

The dashed part of the orbit path shows where the satellite is in the earth's shadow,  

DLR